Regional Weather Roundup
Issued by NWS Northern Indiana

Home | Current Version | Previous Version | Graphics & Text | Print | Product List | Glossary On
Versions: 1 2 3 4 5 6 7 8 9 10 11 12 13 14 15 16 17 18 19 20 21 22 23 24 25 26 27 28 29 30 31 32 33 34 35 36 37 38 39 40 41 42 43 44 45 46 47 48 49 50
000
ASUS43 KIWX 281600
RWRIWX

KIWX WEATHER ROUNDUP
NATIONAL WEATHER SERVICE NORTHERN INDIANA
1200 PM EDT SAT MAR 28 2015

NOTE: "FAIR" INDICATES FEW OR NO CLOUDS BELOW 12,000 FEET WITH NO
SIGNIFICANT WEATHER AND/OR OBSTRUCTIONS TO VISIBILITY.

* THESE STATIONS ARE NOT UNDER NWS QUALITY CONTROL. THEY ALSO MAY NOT
  REPORT WEATHER SUCH AS PRECIPITATION OR FOG.

INZ001>027-281700-
NORTHERN INDIANA

CITY           SKY/WX    TMP DP  RH WIND       PRES   REMARKS
SOUTH BEND     SUNNY     27   6  41 CALM      30.34R
GOSHEN         SUNNY     26   8  46 VRB6      30.31S WCI  19
ANGOLA*        SUNNY     25   5  42 E8        30.29S WCI  16
FORT WAYNE     SUNNY     27   6  41 E5        30.32R WCI  22
PERU/GRISSOM   SUNNY     27   8  44 VRB2      30.31R

$$
INZ028>050-281700-
CENTRAL INDIANA

CITY           SKY/WX    TMP DP  RH WIND       PRES   REMARKS
LAFAYETTE      SUNNY     28   7  41 NE6       30.33S WCI  22
KOKOMO*          N/A     28 N/A N/A NE3       30.32R
MUNCIE*        SUNNY     26   9  48 NE10      30.30R WCI  16
INDIANAPOLIS   MOSUNNY   29  10  45 CALM      30.30R

$$
MIZ043>046-050>051-056>058-064>065-071>073-077>080-281700-
SOUTHWEST LOWER MICHIGAN

CITY           SKY/WX    TMP DP  RH WIND       PRES   REMARKS
BATTLE CREEK   SUNNY     27   5  39 CALM      30.31R
BENTON HARBOR  SUNNY     24  11  57 NW7       30.35R WCI  16
COLDWATER*     SUNNY     26   5  41 CALM      30.30S
HILLSDALE*     SUNNY     26   6  42 N7        30.27S WCI  19
HOLLAND        SUNNY     27   3  35 NW5       30.35R WCI  22
GRAND RAPIDS   MOSUNNY   28   4  35 VRB3      30.33S
KALAMAZOO      SUNNY     27   4  37 VRB3      30.32S
STURGIS*       SUNNY     25   5  42 CALM      30.30S
THREE RIVERS*  FAIR      28   4  36 NE5       30.32S WCI  22

$$
OHZ001>008-015>018-024>025-281700-
NORTHWEST OHIO

CITY           SKY/WX    TMP DP  RH WIND       PRES   REMARKS
DEFIANCE       MOSUNNY   29  11  47 N10G17    30.31S WCI  20
FINDLAY        PTSUNNY   28  10  46 NE16      30.28R WCI  16
TOLEDO EXPRESS MOSUNNY   27   9  46 N9G22     30.29S WCI  18
TOLEDO METCALF PTSUNNY   26   9  48 N8        30.31R WCI  18
LIMA           CLOUDY    26  11  52 N8        30.28R WCI  18

$$
AND FOR LAKE MICHIGAN COASTAL AND OPEN LAKE BUOY OBSERVATIONS

STATION/POSITION TEMP    WIND        PRES    VSBY  WAVE
                 AIR SEA DIR/SP/G                  HT/PER
                 (F)     (DEG/KT/KT) (MB)    (MI)  (FT/S)
CALUMET HARBOR    27      20/  8/ 12 1026.6R
MICHIGAN CITY     21      20/  8/ 10   N/A
BURNS HARBOR      25      50/  6/  8 1028.4S
SAINT JOSEPH      22     300/  5/  7 1028.4R

$$
&&


USA.gov is the U.S. government's official web portal to all federal, state and local government web resources and services.